Regional Weather Roundup
Issued by NWS

Home | Current Version | Previous Version | Graphics & Text | Print | Product List | Glossary On
Versions: 1 2 3 4 5 6 7 8 9 10 11 12 13 14 15 16 17 18 19 20 21 22 23 24 25 26 27 28
000
ASUS45 KCYS 030710
RWRWY

WYOMING REGIONAL WEATHER ROUNDUP
NATIONAL WEATHER SERVICE CHEYENNE WY
100 AM MDT TUE MAY 03 2016

NOTE:  "FAIR" INDICATES FEW OR NO CLOUDS BELOW 12,000 FEET
WITH NO SIGNIFICANT WEATHER AND/OR OBSTRUCTIONS TO VISIBILITY.

WYZ001-030800-
YELLOWSTONE NATIONAL PARK

CITY           SKY/WX    TMP DP  RH WIND       PRES   REMARKS
LK YELLOWSTONE   N/A     29  23  78 CALM      30.32S
W YELLOWSTONE  NOT AVBL

$$
WYZ002>013-054>058-071-098>099-030800-
NORTHERN WYOMING

CITY           SKY/WX    TMP DP  RH WIND       PRES   REMARKS
JACKSON        FAIR      34  27  75 NE3       30.26R
CODY           FAIR      50  30  46 SW6       30.19R
GREYBULL       FAIR      49  29  46 SW5       30.13S
WORLAND        FAIR      43  35  73 S10       30.14R
SHERIDAN       FAIR      46  33  60 SE5       30.14F
BUFFALO          N/A    N/A N/A N/A MISG      30.18S
GILLETTE       FAIR      44  35  70 W13       30.12S
HULETT         FAIR      41  36  81 S7        30.12S
NEWCASTLE      FAIR      43  32  65 N8        30.11S

$$
WYZ014>020-022>026-101>103-030800-
CENTRAL WYOMING

CITY           SKY/WX    TMP DP  RH WIND       PRES   REMARKS
BIG PINEY      FAIR      37  18  46 E3        30.26S
PINEDALE       FAIR      34  21  60 E6        30.27S WCI  29
DUBOIS         FAIR      36  23  60 NW12      30.28S WCI  27
LANDER         FAIR      44  26  49 SW8       30.19S
RIVERTON       FAIR      43  33  68 N9        30.21S
CASPER         FAIR      36  31  82 W6        30.20R WCI  31
DOUGLAS        FAIR      39  33  79 N6        30.17S WCI  35

$$
WYZ021-027>030-104>119-030800-
SOUTHERN WYOMING

CITY           SKY/WX    TMP DP  RH WIND       PRES   REMARKS
EVANSTON       FAIR      44  25  47 CALM      30.27R
KEMMERER         N/A     36  23  60 NW10      30.27R WCI  28
FORT BRIDGER   SUNNY     41  21  45 W8        30.29S
ROCK SPRINGS   FAIR      43  19  38 S3        30.26R
DIXON          FAIR      32  23  70 CALM      30.27R
RAWLINS        FAIR      33  24  69 NW9       30.24S WCI  25
SARATOGA       FAIR      30  23  74 S3        30.25R
LARAMIE        FAIR      29  24  82 W6        30.22R WCI  23
CHEYENNE       FAIR      43  28  55 NW14G24   30.16R
TORRINGTON     FAIR      45  34  65 NW8       30.09S
PINE BLUFFS    FAIR      37  32  81 NE7       30.15R WCI  32

$$




USA.gov is the U.S. government's official web portal to all federal, state and local government web resources and services.